Flag for Canada Weather past 2 weeks in Annapolis County, Nova Scotia, Canada

Now
83 °F

Warm.


Feels Like: 82 °F
Forecast: 58 / 79 °F
Wind: 7 mph from South

Location: Kejimkujik 1

Current Time: Aug 3, 2015 at 4:30:43 PM

Latest Report: Aug 3, 2015 at 4:00 PM


Visibility: N/A

Pressure: 29.91 "Hg

Humidity: 40%

Dew point: 56 °F

Location of Annapolis CountyLocation

Historic Weather in Annapolis County — Graph

°F

Annapolis County temperature yesterday

Maximum temperature yesterday: 81 °F (at 3:00 PM)
Minimum temperature yesterday: 60 °F (at 5:00 AM)
Average temperature yesterday: 70 °F

Past Weeks' High & Low Weather Summary

 TemperatureHumidityPressure
High84 °F (Aug 1, 3:00 PM)100% (Jul 20, 10:00 AM)30.11 "Hg (Jul 20, 10:00 AM)
Low52 °F (Jul 24, 6:00 AM)36% (Aug 1, 4:00 PM)29.52 "Hg (Jul 22, 4:00 PM)
Average66 °F83%29.84 "Hg
* Reported Jul 19 3:00 PM — Aug 3 3:00 PM, Annapolis County, Weather by CustomWeather, © 2015

Note: Actual official high and low records may vary slightly from our data, if they occured in-between our weather recording intervals... More about our weather records

Advertising

Annapolis County weather history for previous 24 hours

 ConditionsComfort  
Time TempWeatherWind HumidityBarometerVisibility
3:00 PM
Mon, Aug 3
82 °FWarm.8 mph41%29.92 "HgN/A
2:00 PM82 °FPleasantly warm.10 mph40%29.93 "HgN/A
1:00 PM81 °FWarm.8 mph43%29.93 "HgN/A
12:00 PM80 °FWarm.7 mph45%29.94 "HgN/A
11:00 AM76 °FMild.6 mph51%29.95 "HgN/A
10:00 AM72 °FMild.3 mph63%29.96 "HgN/A
9:00 AM67 °FMild.3 mph74%29.96 "HgN/A
8:00 AM60 °FCool.6 mph92%29.95 "HgN/A
7:00 AM55 °FCool.2 mph94%29.94 "HgN/A
6:00 AM55 °FCool.3 mph94%29.94 "HgN/A
5:00 AM56 °FCool.2 mph92%29.93 "HgN/A
4:00 AM56 °FCool.2 mph92%29.92 "HgN/A
3:00 AM58 °FCool.3 mph90%29.92 "HgN/A
2:00 AM60 °FCool.3 mph89%29.92 "HgN/A
1:00 AM60 °FCool.5 mph89%29.92 "HgN/A
12:00 AM61 °FCool.5 mph85%29.92 "HgN/A
11:00 PM
Sun, Aug 2
63 °FMild.2 mph79%29.91 "HgN/A
10:00 PM64 °FMild.2 mph73%29.90 "HgN/A
9:00 PM67 °FMild.2 mph65%29.88 "HgN/A
8:00 PM72 °FMild.5 mph54%29.88 "HgN/A
7:00 PM76 °FMild.7 mph47%29.85 "HgN/A
6:00 PM79 °FWarm.6 mph43%29.84 "HgN/A
5:00 PM81 °FWarm.8 mph44%29.85 "HgN/A
4:00 PM81 °FWarm.8 mph41%29.85 "HgN/A
Weather by CustomWeather, © 2015

See weather overviewHow to use our weather pages